This demonstration page uses our WeatherBlox Daily Observations layout. Learn more.

Left ArrowRight Arrow

47.50024, -111.30081

Hourly Observations for June 24, 2022

Temp ( °F °C ) Dew Point ( °F °C ) Humidity (%) Winds ( mph kmh ) Pressure ( in mb ) Visibility ( mi km ) Precip ( " mm )
12:53 am 00:53 Clear 52 11.1 35 1.7 53 53 NE 8 13 29.90 1012 10 16 0.00 0.00
1:53 am 01:53 Clear 51 10.6 41 5 69 69 NE 8 13 29.90 1012 10 16 0.00 0.00
2:53 am 02:53 Clear 50 10 41 5 71 71 NE 8 13 29.90 1012 10 16 0.00 0.00
3:53 am 03:53 Clear 49 9.4 41 5 74 74 NE 6 9 29.90 1013 10 16 0.00 0.00
4:53 am 04:53 Clear 39 3.9 37 2.8 93 93 SW 6 9 29.95 1014 10 16 0.00 0.00
5:53 am 05:53 Sunny 40 4.4 38 3.3 93 93 W 5 7 29.96 1014 10 16 0.00 0.00
6:53 am 06:53 Sunny 49 9.4 42 5.6 77 77 WNW 6 9 29.95 1014 10 16 0.00 0.00
7:53 am 07:53 Sunny 53 11.7 42 5.6 66 66 W 6 9 29.96 1015 10 16 0.00 0.00
8:53 am 08:53 Sunny 58 14.4 39 3.9 50 50 Calm 29.96 1015 10 16 0.00 0.00
9:53 am 09:53 Sunny 61 16.1 38 3.3 43 43 Calm 29.97 1015 10 16 0.00 0.00
10:53 am 10:53 Sunny 66 18.9 37 2.8 34 34 NNW 9 15 29.98 1015 10 16 0.00 0.00
11:53 am 11:53 Mostly Sunny 67 19.4 31 -0.6 26 26 NW 9 15 30.00 1016 10 16 0.00 0.00
12:53 pm 12:53 Mostly Cloudy 64 17.8 33 0.6 32 32 N 14 22 30.03 1017 10 16 0.00 0.00
1:53 pm 13:53 Mostly Cloudy 63 17.2 33 0.6 33 33 N 21 33 30.07 1018 10 16 0.00 0.00
2:53 pm 14:53 Cloudy with Rain 49 9.4 44 6.7 83 83 NW 28 44 30.19 1022 5 8 0.00 0.00
3:53 pm 15:53 Mostly Cloudy with Light Rain 54 12.2 44 6.7 69 69 NNW 20 31 30.20 1023 10 16 0.02 0.51
4:22 pm 16:22 Mostly Cloudy 55 12.8 43 6.1 64 64 WNW 12 19 30.13 1020 10 16 0.00 0.00
4:53 pm 16:53 Mostly Sunny 58 14.4 41 5 53 53 NNW 21 33 30.23 1024 10 16 0.00 0.00
5:53 pm 17:53 Cloudy 54 12.2 39 3.9 57 57 NNW 23 37 30.27 1025 10 16 0.00 0.00
6:53 pm 18:53 Mostly Cloudy 57 13.9 39 3.9 51 51 NNW 20 31 30.27 1025 10 16 0.00 0.00
7:53 pm 19:53 Partly Cloudy 54 12.2 39 3.9 57 57 NNW 18 30 30.30 1026 10 16 0.00 0.00
8:53 pm 20:53 Partly Cloudy 50 10 38 3.3 63 63 NNW 13 20 30.33 1027 10 16 0.00 0.00
9:53 pm 21:53 Mostly Clear 45 7.2 38 3.3 77 77 NNW 9 15 30.35 1028 10 16 0.00 0.00
10:53 pm 22:53 Partly Cloudy 45 7.2 38 3.3 77 77 NNW 3 6 30.35 1028 10 16 0.00 0.00
11:53 pm 23:53 Mostly Cloudy 44 6.7 39 3.9 83 83 SW 8 13 30.37 1028 10 16 0.00 0.00

Powered by AerisWeather